Simultaneous Nadir Overpasses (SNOs) Predictions

Prediction of SNOs between NOAA-20 and METOP-B Satellite Orbit:

Table of predicted SNOs for the next 14.0 days since TLE Epoch: 9/13/2019
Index Date (NOAA-20) Time (NOAA-20) Lat,Lon (NOAA-20) SZA (NOAA-20 ) Date (METOP-B) Time (METOP-B) Lat,Lon (METOP-B) SZA (METOP-B ) Distance(km) Time Diff (sec)
1 09/22/2019 12:59:52 73.43, -24.68 73.20 09/22/2019 13:00:59 73.39, -22.20 73.07 78.89 67
2 09/22/2019 13:50:35 -73.37, 142.77 106.85 09/22/2019 13:51:43 -73.31, 144.94 107.00 69.42 68
3 09/22/2019 14:41:16 73.13, -49.39 72.91 09/22/2019 14:42:27 73.07, -48.25 72.80 37.58 71
4 09/22/2019 15:31:59 -73.07, 118.05 107.15 09/22/2019 15:33:11 -72.99, 118.90 107.27 29.01 72
5 09/22/2019 16:22:40 72.83, -74.13 72.62 09/22/2019 16:23:53 72.84, -74.07 72.61 2.31 73
6 09/22/2019 17:13:24 -72.82, 93.21 107.39 09/22/2019 17:14:36 -72.81, 93.19 107.41 1.25 72
7 09/22/2019 18:04:10 72.84, -99.51 72.65 09/22/2019 18:05:15 72.82, -99.45 72.62 2.49 65
8 09/22/2019 18:54:54 -72.83, 67.82 107.35 09/22/2019 18:55:57 -72.84, 67.91 107.35 3.34 63
9 09/22/2019 19:45:39 72.79,-124.79 72.62 09/22/2019 19:46:37 72.80,-124.84 72.63 2.04 58
10 09/22/2019 20:36:24 -72.83, 42.44 107.32 09/22/2019 20:37:19 -72.82, 42.53 107.35 3.10 55
11 09/22/2019 21:27:09 72.79,-150.17 72.65 09/22/2019 21:27:59 72.78,-150.22 72.63 2.56 50
12 09/22/2019 22:17:53 -72.79, 17.16 107.35 09/22/2019 22:18:41 -72.80, 17.14 107.34 1.68 48
13 09/22/2019 23:08:39 72.80,-175.55 72.69 09/22/2019 23:09:20 72.81,-175.50 72.69 1.82 41
14 09/22/2019 23:59:23 -72.79, -8.22 107.31 09/23/2019 00:00:03 -72.78, -8.24 107.33 1.58 40
15 09/23/2019 00:50:09 72.80, 159.07 72.72 09/23/2019 00:50:42 72.78, 159.11 72.69 2.40 33
16 09/23/2019 01:40:53 -72.79, -33.60 107.28 09/23/2019 01:41:24 -72.81, -33.52 107.28 2.92 31
17 09/23/2019 02:31:38 72.75, 133.79 72.69 09/23/2019 02:32:04 72.76, 133.72 72.70 2.29 26
18 09/23/2019 03:22:23 -72.80, -58.98 107.25 09/23/2019 03:22:46 -72.78, -58.91 107.27 2.83 23
19 09/23/2019 04:13:08 72.76, 108.41 72.73 09/23/2019 04:13:26 72.74, 108.34 72.71 3.03 18
20 09/23/2019 05:03:52 -72.75, -84.26 107.28 09/23/2019 05:04:08 -72.76, -84.29 107.26 1.74 16
21 09/23/2019 05:54:38 72.76, 83.02 72.76 09/23/2019 05:54:47 72.77, 83.06 72.76 1.35 9
22 09/23/2019 06:45:22 -72.75,-109.64 107.24 09/23/2019 06:45:30 -72.74,-109.68 107.26 1.93 8
23 09/23/2019 07:36:08 72.77, 57.64 72.79 09/23/2019 07:36:09 72.75, 57.67 72.77 2.42 1
24 09/23/2019 08:26:52 -72.76,-135.02 107.21 09/23/2019 08:26:51 -72.77,-134.96 107.20 2.50 1
25 09/23/2019 09:17:37 72.72, 32.36 72.77 09/23/2019 09:17:31 72.72, 32.29 72.77 2.58 6
26 09/23/2019 10:08:22 -72.76,-160.41 107.18 09/23/2019 10:08:13 -72.75,-160.34 107.20 2.62 9
27 09/23/2019 10:59:07 72.72, 6.98 72.80 09/23/2019 10:58:52 72.75, 7.01 72.83 3.45 15
28 09/23/2019 11:49:51 -72.71, 174.32 107.20 09/23/2019 11:49:35 -72.72, 174.27 107.19 1.87 16
29 09/23/2019 12:40:37 72.73, -18.40 72.83 09/23/2019 12:40:14 72.73, -18.38 72.83 0.89 23
30 09/23/2019 13:31:21 -72.72, 148.93 107.17 09/23/2019 13:30:57 -72.70, 148.89 107.18 2.30 24
31 09/23/2019 14:22:07 72.73, -43.78 72.86 09/23/2019 14:21:36 72.71, -43.76 72.84 2.53 31
32 09/23/2019 15:12:51 -72.72, 123.55 107.14 09/23/2019 15:12:18 -72.73, 123.61 107.13 2.11 33
33 09/23/2019 16:03:36 72.68, -69.06 72.84 09/23/2019 16:02:58 72.69, -69.15 72.85 2.90 38
34 09/23/2019 16:54:21 -72.73, 98.17 107.11 09/23/2019 16:53:40 -72.71, 98.22 107.12 2.48 41
35 09/23/2019 17:45:06 72.69, -94.44 72.87 09/23/2019 17:44:19 72.72, -94.43 72.90 3.12 47
36 09/23/2019 18:35:50 -72.68, 72.89 107.13 09/23/2019 18:35:02 -72.69, 72.84 107.12 2.06 48
37 09/23/2019 19:26:36 72.69,-119.83 72.90 09/23/2019 19:25:41 72.69,-119.82 72.91 0.44 55
38 09/23/2019 20:17:20 -72.68, 47.51 107.10 09/23/2019 20:16:24 -72.67, 47.45 107.11 2.67 56
39 09/23/2019 21:08:06 72.70,-145.21 72.93 09/23/2019 21:07:03 72.67,-145.20 72.92 2.73 63
40 09/23/2019 21:58:50 -72.69, 22.13 107.07 09/23/2019 21:57:45 -72.69, 22.17 107.06 1.72 65
41 09/23/2019 22:49:35 72.65,-170.49 72.91 09/23/2019 22:48:25 72.65,-170.59 72.92 3.23 70
42 09/23/2019 23:40:20 -72.69, -3.26 107.04 09/23/2019 23:39:07 -72.67, -3.21 107.05 2.41 73
43 09/24/2019 00:31:02 72.50, 164.44 72.78 09/24/2019 00:29:49 72.53, 163.82 72.83 20.79 73
44 09/24/2019 01:21:45 -72.44, -28.13 107.28 09/24/2019 01:20:33 -72.45, -29.01 107.23 29.67 72
45 09/24/2019 02:12:26 72.20, 139.66 72.48 09/24/2019 02:11:17 72.20, 137.83 72.56 62.17 69
46 09/24/2019 03:03:09 -72.14, -52.91 107.57 09/24/2019 03:02:00 -72.17, -54.89 107.46 67.70 69




NCC Satellite Simultaneous Nadir Overpasses (SNOs) Prediction Service
